Location: Almena City Lake
(39.8850°N, 99.6804°W)
Time: 08:15:40
(UTC+00:00)

STARLINK-1023 - Pass Details

Date: 18 February 2020
Orbit: 559 x 560 km, 53.0° (Epoch: 28 March)

Event Time Altitude Azimuth Distance (km) Brightness Sun altitude
Rises 01:31:19 0° 230° (SW) 2,730 8.1 -14.9°
Reaches altitude 10° 01:33:32 10° 231° (SW) 1,839 7.1 -15.4°
Maximum altitude 01:37:44 86° 320° (NW) 565 3.6 -16.2°
Enters shadow 01:40:06 25° 48° (NE) 1,140 4.8 -16.6°
